| time (UTC) | temp C | wind direction | speed KPH | gust KPH | rain 1hr cm | rain 24hr cm | rain mn cm | humidity % | barometer mb |
| 20260506043339 | 13 | 230 | 4.8 | 9.7 | 0.00 | 0.00 | 0.00 | 84 | 1007.8 |
| 20260506042840 | 13 | 201 | 8.0 | 9.7 | 0.00 | 0.00 | 0.00 | 84 | 1007.7 |
| 20260506042340 | 13 | 214 | 3.2 | 9.7 | 0.00 | 0.00 | 0.00 | 85 | 1007.6 |
| 20260506041840 | 13 | 198 | 3.2 | 8.0 | 0.00 | 0.00 | 0.00 | 85 | 1007.7 |
| 20260506040344 | 12 | 193 | 3.2 | 6.4 | 0.00 | 0.00 | 0.00 | 85 | 1007.3 |
| 20260506035840 | 13 | 152 | 6.4 | 6.4 | 0.00 | 0.00 | 0.00 | 84 | 1007.1 |
| 20260506034840 | 13 | 195 | 1.6 | 3.2 | 0.00 | 0.00 | 0.00 | 83 | 1007.2 |
| 20260506034339 | 13 | 238 | 0.0 | 3.2 | 0.00 | 0.00 | 0.00 | 82 | 1007.2 |
| 20260506033839 | 13 | 223 | 1.6 | 4.8 | 0.00 | 0.00 | 0.00 | 82 | 1007.3 |
| 20260506033340 | 13 | 143 | 0.0 | 6.4 | 0.00 | 0.00 | 0.00 | 82 | 1007.4 |
| 20260506032840 | 13 | 254 | 0.0 | 6.4 | 0.00 | 0.00 | 0.00 | 82 | 1007.2 |
| 20260506032340 | 13 | 170 | 1.6 | 4.8 | 0.00 | 0.00 | 0.00 | 82 | 1007.3 |
| 20260506031339 | 13 | 173 | 0.0 | 3.2 | 0.00 | 0.00 | 0.00 | 80 | 1007.3 |
| 20260506030840 | 14 | 157 | 0.0 | 3.2 | 0.00 | 0.00 | 0.00 | 80 | 1007.3 |
| 20260506030340 | 14 | 197 | 1.6 | 3.2 | 0.00 | 0.00 | 0.00 | 80 | 1007.5 |
| 20260506024840 | 14 | 229 | 1.6 | 4.8 | 0.00 | 0.00 | 0.00 | 80 | 1007.1 |
| 20260506024340 | 14 | 220 | 0.0 | 3.2 | 0.00 | 0.00 | 0.00 | 80 | 1007.4 |
| 20260506023339 | 14 | 248 | 0.0 | 3.2 | 0.00 | 0.00 | 0.00 | 79 | 1007.1 |
| 20260506022840 | 14 | 262 | 0.0 | 3.2 | 0.00 | 0.00 | 0.00 | 79 | 1007.0 |
| 20260506022340 | 15 | 233 | 1.6 | 3.2 | 0.00 | 0.00 | 0.00 | 78 | 1007.3 |
| 20260506021840 | 15 | 35 | 0.0 | 3.2 | 0.00 | 0.00 | 0.00 | 77 | 1007.2 |
| 20260506020839 | 15 | 344 | 1.6 | 4.8 | 0.00 | 0.00 | 0.00 | 77 | 1007.4 |
| 20260506015840 | 15 | 216 | 3.2 | 4.8 | 0.00 | 0.00 | 0.00 | 75 | 1007.0 |
| 20260506015340 | 15 | 202 | 1.6 | 4.8 | 0.00 | 0.00 | 0.00 | 75 | 1007.2 |
| 20260506014839 | 15 | 186 | 0.0 | 3.2 | 0.00 | 0.00 | 0.00 | 74 | 1007.0 |
| 20260506014340 | 15 | 248 | 1.6 | 3.2 | 0.00 | 0.00 | 0.00 | 74 | 1007.0 |
| 20260506013840 | 16 | 89 | 0.0 | 4.8 | 0.00 | 0.00 | 0.00 | 73 | 1006.9 |
| 20260506013340 | 16 | 326 | 3.2 | 6.4 | 0.00 | 0.00 | 0.00 | 72 | 1007.0 |
| 20260506012340 | 16 | 229 | 0.0 | 6.4 | 0.00 | 0.00 | 0.00 | 71 | 1007.1 |
| 20260506011840 | 16 | 206 | 1.6 | 9.7 | 0.00 | 0.00 | 0.00 | 70 | 1007.1 |
| 20260506011340 | 16 | 212 | 1.6 | 9.7 | 0.00 | 0.00 | 0.00 | 69 | 1006.9 |
| 20260506010340 | 16 | 53 | 3.2 | 8.0 | 0.00 | 0.00 | 0.00 | 68 | 1007.0 |
| 20260506005839 | 16 | 44 | 0.0 | 8.0 | 0.00 | 0.00 | 0.00 | 68 | 1006.9 |
| 20260506005339 | 16 | 207 | 0.0 | 6.4 | 0.00 | 0.00 | 0.00 | 68 | 1006.8 |
| 20260506004840 | 16 | 180 | 0.0 | 6.4 | 0.00 | 0.00 | 0.00 | 67 | 1006.8 |
| 20260506002341 | 15 | 19 | 1.6 | 3.2 | 0.00 | 0.00 | 0.00 | 71 | 1006.2 |
| 20260506001840 | 15 | 355 | 0.0 | 3.2 | 0.00 | 0.00 | 0.00 | 70 | 1005.9 |
| 20260506001339 | 15 | 106 | 0.0 | 1.6 | 0.00 | 0.00 | 0.00 | 69 | 1006.0 |
| 20260506000840 | 15 | 93 | 1.6 | 1.6 | 0.00 | 0.00 | 0.00 | 69 | 1006.0 |
| 20260506000340 | 15 | 89 | 0.0 | 3.2 | 0.00 | 0.00 | 0.00 | 69 | 1006.0 |
| 20260505235840 | 15 | 89 | 0.0 | 3.2 | 0.00 | 0.00 | 0.00 | 68 | 1005.8 |
| 20260505235340 | 15 | 84 | 1.6 | 3.2 | 0.00 | 0.00 | 0.00 | 68 | 1005.8 |
| 20260505234840 | 15 | 103 | 0.0 | 4.8 | 0.00 | 0.00 | 0.00 | 67 | 1005.8 |
| 20260505234339 | 15 | 150 | 0.0 | 4.8 | 0.00 | 0.00 | 0.00 | 66 | 1005.8 |
| 20260505233841 | 16 | 165 | 3.2 | 6.4 | 0.00 | 0.00 | 0.00 | 65 | 1005.9 |
| 20260505233340 | 16 | 219 | 3.2 | 6.4 | 0.00 | 0.00 | 0.00 | 64 | 1005.9 |
| 20260505232340 | 16 | 219 | 0.0 | 4.8 | 0.00 | 0.00 | 0.00 | 64 | 1005.7 |
| 20260505231840 | 16 | 33 | 0.0 | 6.4 | 0.00 | 0.00 | 0.00 | 65 | 1005.8 |
| 20260505231353 | 16 | 223 | 1.6 | 6.4 | 0.00 | 0.00 | 0.00 | 65 | 1005.5 |
| 20260505230840 | 15 | 156 | 0.0 | 4.8 | 0.00 | 0.00 | 0.00 | 65 | 1005.3 |
| 20260505230340 | 15 | 263 | 1.6 | 6.4 | 0.00 | 0.00 | 0.00 | 65 | 1005.6 |
| 20260505225840 | 16 | 305 | 0.0 | 8.0 | 0.00 | 0.00 | 0.00 | 64 | 1005.3 |
| 20260505225340 | 16 | 228 | 3.2 | 8.0 | 0.00 | 0.00 | 0.00 | 64 | 1005.3 |
| 20260505224840 | 16 | 248 | 0.0 | 6.4 | 0.00 | 0.00 | 0.00 | 64 | 1005.0 |
| 20260505224340 | 16 | 230 | 3.2 | 9.7 | 0.00 | 0.00 | 0.00 | 64 | 1005.3 |
| 20260505223839 | 16 | 234 | 3.2 | 9.7 | 0.00 | 0.00 | 0.00 | 63 | 1005.1 |
| 20260505223340 | 16 | 207 | 3.2 | 9.7 | 0.00 | 0.00 | 0.00 | 63 | 1005.0 |
| 20260505222839 | 16 | 257 | 9.7 | 9.7 | 0.00 | 0.00 | 0.00 | 63 | 1004.9 |
| 20260505222340 | 16 | 196 | 3.2 | 8.0 | 0.00 | 0.00 | 0.00 | 63 | 1004.8 |
| 20260505221839 | 16 | 208 | 3.2 | 8.0 | 0.00 | 0.00 | 0.00 | 62 | 1004.8 |
| 20260505221340 | 16 | 198 | 3.2 | 6.4 | 0.00 | 0.00 | 0.00 | 62 | 1004.6 |
| 20260505220841 | 16 | 214 | 4.8 | 6.4 | 0.00 | 0.00 | 0.00 | 62 | 1004.5 |
| 20260505215340 | 16 | 207 | 1.6 | 8.0 | 0.00 | 0.00 | 0.00 | 61 | 1004.4 |
| 20260505214853 | 16 | 178 | 3.2 | 8.0 | 0.00 | 0.00 | 0.00 | 61 | 1004.4 |
| 20260505213840 | 16 | 213 | 3.2 | 9.7 | 0.00 | 0.00 | 0.00 | 60 | 1004.4 |
| 20260505213341 | 16 | 26 | 4.8 | 9.7 | 0.00 | 0.00 | 0.00 | 61 | 1004.3 |
| 20260505212840 | 16 | 230 | 8.0 | 12.9 | 0.00 | 0.00 | 0.00 | 60 | 1004.3 |
| 20260505211840 | 16 | 219 | 6.4 | 8.0 | 0.00 | 0.00 | 0.00 | 59 | 1004.3 |
| 20260505211339 | 16 | 237 | 3.2 | 12.9 | 0.00 | 0.00 | 0.00 | 59 | 1004.3 |
| 20260505210840 | 17 | 217 | 9.7 | 14.5 | 0.00 | 0.00 | 0.00 | 58 | 1004.1 |
| 20260505205339 | 17 | 198 | 8.0 | 11.3 | 0.00 | 0.00 | 0.00 | 58 | 1004.2 |
| 20260505204840 | 17 | 223 | 4.8 | 11.3 | 0.00 | 0.00 | 0.00 | 57 | 1003.8 |
| 20260505204339 | 17 | 166 | 1.6 | 16.1 | 0.00 | 0.00 | 0.00 | 56 | 1004.0 |
| 20260505203840 | 17 | 216 | 8.0 | 16.1 | 0.00 | 0.00 | 0.00 | 55 | 1003.9 |
| 20260505203340 | 17 | 216 | 6.4 | 9.7 | 0.00 | 0.00 | 0.00 | 55 | 1003.7 |
| 20260505202840 | 17 | 153 | 3.2 | 14.5 | 0.00 | 0.00 | 0.00 | 55 | 1003.4 |
| 20260505202339 | 17 | 171 | 8.0 | 14.5 | 0.00 | 0.00 | 0.00 | 55 | 1003.5 |
| 20260505201840 | 17 | 202 | 6.4 | 11.3 | 0.00 | 0.00 | 0.00 | 55 | 1003.5 |
| 20260505201340 | 17 | 147 | 3.2 | 11.3 | 0.00 | 0.00 | 0.00 | 55 | 1003.5 |
| 20260505200840 | 17 | 247 | 3.2 | 9.7 | 0.00 | 0.00 | 0.00 | 55 | 1003.3 |
| 20260505200339 | 18 | 199 | 9.7 | 16.1 | 0.00 | 0.00 | 0.00 | 54 | 1003.4 |
| 20260505195840 | 18 | 175 | 6.4 | 17.7 | 0.00 | 0.00 | 0.00 | 54 | 1003.3 |
| 20260505195340 | 18 | 193 | 6.4 | 17.7 | 0.00 | 0.00 | 0.00 | 53 | 1003.4 |
| 20260505194840 | 18 | 219 | 6.4 | 14.5 | 0.00 | 0.00 | 0.00 | 52 | 1003.4 |
| 20260505193840 | 18 | 238 | 6.4 | 25.7 | 0.00 | 0.00 | 0.00 | 51 | 1003.5 |
| 20260505193340 | 18 | 205 | 4.8 | 20.9 | 0.00 | 0.00 | 0.00 | 51 | 1003.2 |
| 20260505192840 | 18 | 221 | 6.4 | 20.9 | 0.00 | 0.00 | 0.00 | 51 | 1003.2 |
| 20260505191840 | 19 | 166 | 11.3 | 20.9 | 0.00 | 0.00 | 0.00 | 50 | 1003.2 |
| 20260505191340 | 19 | 193 | 9.7 | 25.7 | 0.00 | 0.00 | 0.00 | 50 | 1003.1 |
| 20260505190840 | 19 | 220 | 14.5 | 25.7 | 0.00 | 0.00 | 0.00 | 49 | 1003.1 |
| 20260505190340 | 19 | 191 | 9.7 | 19.3 | 0.00 | 0.00 | 0.00 | 49 | 1003.2 |
| 20260505185339 | 20 | 198 | 8.0 | 20.9 | 0.00 | 0.00 | 0.00 | 48 | 1003.2 |
| 20260505184840 | 20 | 177 | 11.3 | 22.5 | 0.00 | 0.00 | 0.00 | 48 | 1003.2 |
| 20260505184340 | 20 | 239 | 8.0 | 22.5 | 0.00 | 0.00 | 0.00 | 48 | 1002.9 |
| 20260505183839 | 20 | 191 | 12.9 | 19.3 | 0.00 | 0.00 | 0.00 | 48 | 1003.0 |
| 20260505183340 | 20 | 168 | 14.5 | 19.3 | 0.00 | 0.00 | 0.00 | 47 | 1003.3 |
| 20260505182840 | 20 | 190 | 12.9 | 17.7 | 0.00 | 0.00 | 0.00 | 47 | 1003.3 |
| 20260505181841 | 21 | 229 | 8.0 | 27.4 | 0.00 | 0.00 | 0.00 | 47 | 1003.2 |
| 20260505181340 | 21 | 205 | 6.4 | 19.3 | 0.00 | 0.00 | 0.00 | 46 | 1003.2 |
| 20260505180340 | 21 | 208 | 8.0 | 17.7 | 0.00 | 0.00 | 0.00 | 46 | 1003.1 |
| 20260505175840 | 21 | 202 | 9.7 | 17.7 | 0.00 | 0.00 | 0.00 | 46 | 1002.9 |
| 20260505175340 | 21 | 271 | 4.8 | 17.7 | 0.00 | 0.00 | 0.00 | 46 | 1002.9 |
| 20260505174340 | 22 | 194 | 8.0 | 22.5 | 0.00 | 0.00 | 0.00 | 45 | 1003.1 |
| 20260505173340 | 22 | 200 | 12.9 | 22.5 | 0.00 | 0.00 | 0.00 | 44 | 1002.8 |
| 20260505172841 | 22 | 151 | 4.8 | 20.9 | 0.00 | 0.00 | 0.00 | 43 | 1002.9 |
| 20260505172340 | 22 | 211 | 3.2 | 30.6 | 0.00 | 0.00 | 0.00 | 44 | 1003.0 |
| 20260505171840 | 22 | 223 | 9.7 | 30.6 | 0.00 | 0.00 | 0.00 | 43 | 1003.2 |
| 20260505171340 | 22 | 175 | 11.3 | 22.5 | 0.00 | 0.00 | 0.00 | 43 | 1003.1 |
| 20260505170853 | 23 | 226 | 8.0 | 17.7 | 0.00 | 0.00 | 0.00 | 43 | 1002.9 |
| 20260505170340 | 23 | 221 | 11.3 | 19.3 | 0.00 | 0.00 | 0.00 | 42 | 1003.1 |
| 20260505165840 | 23 | 215 | 9.7 | 24.1 | 0.00 | 0.00 | 0.00 | 42 | 1003.1 |
| 20260505165340 | 23 | 158 | 4.8 | 24.1 | 0.00 | 0.00 | 0.00 | 41 | 1003.1 |
| 20260505164337 | 23 | 231 | 8.0 | 25.7 | 0.00 | 0.00 | 0.00 | 41 | 1003.1 |
| 20260505163838 | 23 | 216 | 12.9 | 25.7 | 0.00 | 0.00 | 0.00 | 40 | 1003.2 |
| 20260505163338 | 24 | 194 | 6.4 | 17.7 | 0.00 | 0.00 | 0.00 | 40 | 1003.0 |
| 20260505162338 | 25 | 128 | 8.0 | 17.7 | 0.00 | 0.00 | 0.00 | 37 | 1002.8 |
| 20260505161838 | 25 | 169 | 12.9 | 17.7 | 0.00 | 0.00 | 0.00 | 37 | 1002.9 |
| 20260505161337 | 25 | 187 | 14.5 | 29.0 | 0.00 | 0.00 | 0.00 | 36 | 1003.1 |
| 20260505160837 | 25 | 212 | 16.1 | 29.0 | 0.00 | 0.00 | 0.00 | 35 | 1003.1 |
| 20260505160337 | 25 | 169 | 6.4 | 24.1 | 0.00 | 0.00 | 0.00 | 36 | 1003.1 |
| 20260505153338 | 26 | 197 | 22.5 | 30.6 | 0.00 | 0.00 | 0.00 | 35 | 1003.2 |
| 20260505152838 | 26 | 214 | 11.3 | 20.9 | 0.00 | 0.00 | 0.00 | 34 | 1003.1 |
| 20260505152338 | 26 | 197 | 12.9 | 20.9 | 0.00 | 0.00 | 0.00 | 33 | 1003.2 |
| 20260505151837 | 26 | 221 | 8.0 | 20.9 | 0.00 | 0.00 | 0.00 | 32 | 1003.2 |
| 20260505151337 | 26 | 161 | 12.9 | 20.9 | 0.00 | 0.00 | 0.00 | 32 | 1003.4 |
| 20260505150837 | 27 | 207 | 9.7 | 25.7 | 0.00 | 0.00 | 0.00 | 31 | 1003.6 |
| 20260505150337 | 27 | 180 | 4.8 | 25.7 | 0.00 | 0.00 | 0.00 | 31 | 1003.3 |
| 20260505140337 | 28 | 200 | 4.8 | 17.7 | 0.00 | 0.00 | 0.00 | 26 | 1004.0 |
| 20260505124837 | 27 | 145 | 6.4 | 14.5 | 0.00 | 0.00 | 0.00 | 31 | 1005.5 |
| 20260505124337 | 27 | 208 | 8.0 | 14.5 | 0.00 | 0.00 | 0.00 | 32 | 1005.4 |
| 20260505123837 | 27 | 214 | 4.8 | 17.7 | 0.00 | 0.00 | 0.00 | 34 | 1005.7 |
| 20260505123338 | 26 | 245 | 1.6 | 19.3 | 0.00 | 0.00 | 0.00 | 36 | 1006.0 |
| 20260505122837 | 26 | 214 | 6.4 | 22.5 | 0.00 | 0.00 | 0.00 | 36 | 1005.8 |
| 20260505121837 | 26 | 194 | 14.5 | 22.5 | 0.00 | 0.00 | 0.00 | 35 | 1006.3 |
| 20260505120837 | 26 | 160 | 1.6 | 19.3 | 0.00 | 0.00 | 0.00 | 35 | 1006.2 |
| 20260505120337 | 26 | 200 | 11.3 | 22.5 | 0.00 | 0.00 | 0.00 | 34 | 1006.0 |
| 20260505115837 | 26 | 158 | 14.5 | 22.5 | 0.00 | 0.00 | 0.00 | 36 | 1006.2 |
| 20260505115336 | 25 | 218 | 17.7 | 24.1 | 0.00 | 0.00 | 0.00 | 37 | 1006.3 |
| 20260505114838 | 25 | 206 | 9.7 | 24.1 | 0.00 | 0.00 | 0.00 | 36 | 1006.4 |
| 20260505114337 | 25 | 180 | 4.8 | 17.7 | 0.00 | 0.00 | 0.00 | 36 | 1006.5 |
| 20260505113847 | 25 | 160 | 11.3 | 17.7 | 0.00 | 0.00 | 0.00 | 38 | 1006.6 |
| 20260505113337 | 25 | 206 | 8.0 | 14.5 | 0.00 | 0.00 | 0.00 | 37 | 1006.8 |
| 20260505112837 | 25 | 202 | 6.4 | 20.9 | 0.00 | 0.00 | 0.00 | 39 | 1006.5 |
| 20260505112337 | 25 | 210 | 6.4 | 20.9 | 0.00 | 0.00 | 0.00 | 39 | 1006.8 |
| 20260505111837 | 25 | 213 | 8.0 | 22.5 | 0.00 | 0.00 | 0.00 | 39 | 1006.9 |
| 20260505111338 | 24 | 146 | 4.8 | 22.5 | 0.00 | 0.00 | 0.00 | 40 | 1007.0 |
| 20260505110838 | 24 | 217 | 4.8 | 16.1 | 0.00 | 0.00 | 0.00 | 39 | 1006.8 |
| 20260505110337 | 24 | 208 | 4.8 | 20.9 | 0.00 | 0.00 | 0.00 | 39 | 1006.8 |
| 20260505101838 | 23 | 171 | 3.2 | 24.1 | 0.00 | 0.00 | 0.00 | 44 | 1007.3 |
| 20260505100837 | 23 | 192 | 8.0 | 12.9 | 0.00 | 0.00 | 0.00 | 43 | 1007.7 |
| 20260505095838 | 22 | 145 | 6.4 | 14.5 | 0.00 | 0.00 | 0.00 | 45 | 1007.8 |
| 20260505094837 | 22 | 205 | 9.7 | 11.3 | 0.00 | 0.00 | 0.00 | 45 | 1007.8 |
| 20260505094337 | 22 | 238 | 4.8 | 20.9 | 0.00 | 0.00 | 0.00 | 45 | 1007.9 |
| 20260505093837 | 21 | 175 | 3.2 | 20.9 | 0.00 | 0.00 | 0.00 | 47 | 1007.9 |
| 20260505093340 | 22 | 166 | 9.7 | 11.3 | 0.00 | 0.00 | 0.00 | 47 | 1008.1 |
| 20260505092840 | 22 | 164 | 9.7 | 14.5 | 0.00 | 0.00 | 0.00 | 45 | 1008.1 |
| 20260505091839 | 21 | 168 | 3.2 | 11.3 | 0.00 | 0.00 | 0.00 | 48 | 1008.2 |
| 20260505091340 | 21 | 145 | 6.4 | 11.3 | 0.00 | 0.00 | 0.00 | 49 | 1008.0 |
| 20260505090340 | 21 | 156 | 4.8 | 12.9 | 0.00 | 0.00 | 0.00 | 50 | 1008.4 |
| 20260505085840 | 21 | 62 | 0.0 | 12.9 | 0.00 | 0.00 | 0.00 | 49 | 1008.0 |
| 20260505084838 | 21 | 146 | 6.4 | 11.3 | 0.00 | 0.00 | 0.00 | 50 | 1008.4 |
| 20260505084338 | 21 | 287 | 1.6 | 11.3 | 0.00 | 0.00 | 0.00 | 50 | 1008.4 |
| 20260505083837 | 21 | 111 | 4.8 | 9.7 | 0.00 | 0.00 | 0.00 | 51 | 1008.4 |
| 20260505083338 | 21 | 136 | 3.2 | 8.0 | 0.00 | 0.00 | 0.00 | 50 | 1008.5 |
| 20260505082837 | 21 | 348 | 3.2 | 6.4 | 0.00 | 0.00 | 0.00 | 51 | 1008.0 |
| 20260505082337 | 21 | 201 | 3.2 | 8.0 | 0.00 | 0.00 | 0.00 | 50 | 1008.4 |
| 20260505081836 | 21 | 158 | 0.0 | 9.7 | 0.00 | 0.00 | 0.00 | 51 | 1008.5 |
| 20260505081336 | 20 | 173 | 8.0 | 9.7 | 0.00 | 0.00 | 0.00 | 51 | 1008.4 |
| 20260505080826 | 20 | 193 | 0.0 | 9.7 | 0.00 | 0.00 | 0.00 | 53 | 1008.5 |
| 20260505080321 | 19 | 82 | 9.7 | 9.7 | 0.00 | 0.00 | 0.00 | 54 | 1008.8 |
| 20260505075821 | 20 | 233 | 1.6 | 8.0 | 0.00 | 0.00 | 0.00 | 52 | 1008.6 |
| 20260505075321 | 20 | 125 | 1.6 | 6.4 | 0.00 | 0.00 | 0.00 | 53 | 1008.6 |
| 20260505074821 | 20 | 46 | 6.4 | 6.4 | 0.00 | 0.00 | 0.00 | 51 | 1008.7 |
| 20260505074321 | 20 | 5 | 1.6 | 3.2 | 0.00 | 0.00 | 0.00 | 50 | 1008.5 |
| 20260505073821 | 20 | 8 | 1.6 | 4.8 | 0.00 | 0.00 | 0.00 | 52 | 1008.6 |
| 20260505073321 | 19 | 194 | 3.2 | 4.8 | 0.00 | 0.00 | 0.00 | 53 | 1008.8 |
| 20260505071821 | 17 | 155 | 0.0 | 3.2 | 0.00 | 0.00 | 0.00 | 57 | 1008.9 |
| 20260505071321 | 17 | 92 | 3.2 | 3.2 | 0.00 | 0.00 | 0.00 | 57 | 1008.9 |
| 20260505070822 | 17 | 311 | 0.0 | 3.2 | 0.00 | 0.00 | 0.00 | 57 | 1008.8 |
| 20260505065821 | 17 | 14 | 0.0 | 4.8 | 0.00 | 0.00 | 0.00 | 58 | 1008.6 |
| 20260505065321 | 17 | 198 | 3.2 | 4.8 | 0.00 | 0.00 | 0.00 | 58 | 1008.7 |
| 20260505064821 | 16 | 126 | 0.0 | 4.8 | 0.00 | 0.00 | 0.00 | 58 | 1008.7 |
| 20260505064321 | 16 | 135 | 0.0 | 4.8 | 0.00 | 0.00 | 0.00 | 59 | 1008.9 |
| 20260505063821 | 16 | 59 | 0.0 | 4.8 | 0.00 | 0.00 | 0.00 | 59 | 1008.9 |
| 20260505063321 | 16 | 133 | 3.2 | 6.4 | 0.00 | 0.00 | 0.00 | 60 | 1008.6 |
| 20260505062821 | 16 | 96 | 1.6 | 6.4 | 0.00 | 0.00 | 0.00 | 60 | 1008.7 |
| 20260505061820 | 16 | 124 | 3.2 | 4.8 | 0.00 | 0.00 | 0.00 | 58 | 1009.2 |
| 20260505061320 | 16 | 134 | 0.0 | 4.8 | 0.00 | 0.00 | 0.00 | 59 | 1008.7 |
| 20260505060821 | 16 | 103 | 0.0 | 4.8 | 0.00 | 0.00 | 0.00 | 58 | 1008.9 |
| 20260505060320 | 16 | 135 | 0.0 | 4.8 | 0.00 | 0.00 | 0.00 | 58 | 1008.7 |
| 20260505055823 | 16 | 202 | 1.6 | 4.8 | 0.00 | 0.00 | 0.00 | 57 | 1008.7 |
| 20260505055323 | 16 | 100 | 4.8 | 4.8 | 0.00 | 0.00 | 0.00 | 59 | 1008.8 |
| 20260505054320 | 14 | 8 | 3.2 | 3.2 | 0.00 | 0.00 | 0.00 | 65 | 1008.9 |
| 20260505053821 | 14 | 11 | 3.2 | 3.2 | 0.00 | 0.00 | 0.00 | 66 | 1008.7 |
| 20260505052821 | 13 | 346 | 0.0 | 3.2 | 0.00 | 0.00 | 0.00 | 68 | 1008.7 |
| 20260505052321 | 13 | 32 | 0.0 | 3.2 | 0.00 | 0.00 | 0.00 | 68 | 1008.8 |
| 20260505051822 | 12 | 47 | 0.0 | 3.2 | 0.00 | 0.00 | 0.00 | 70 | 1008.7 |
| 20260505051320 | 12 | 25 | 0.0 | 3.2 | 0.00 | 0.00 | 0.00 | 71 | 1008.7 |
| 20260505050821 | 12 | 129 | 0.0 | 3.2 | 0.00 | 0.00 | 0.00 | 72 | 1008.6 |
| 20260505050321 | 12 | 77 | 0.0 | 3.2 | 0.00 | 0.00 | 0.00 | 73 | 1008.7 |